User: anonymous
Location: Fairmont
(43.6520°N, 94.4610°W)
Time: 20:42:16
(UTC-05:00)
Language:

Cosmos-2242 - Orbit

View from above orbital plane
View from above orbital plane
View from above satellite
View from above satellite

Ground track
Ground track

The orbit data is extracted from the following two-line orbital elements,

1 22626U 93024A   14211.79102060  .00000640  00000-0  70369-4 0  1575
2 22626 082.5248 313.0646 0019536 015.6498 344.5318 14.85951503149743
Epoch (UTC): 30 July 2014 18:59:04
Eccentricity: 0.0019536
inclination: 82.5248°
perigee height: 597 km
apogee height: 624 km
right ascension of ascending node: 313.0646°
argument of perigee: 15.6498°
revolutions per day: 14.85951503
mean anomaly at epoch: 344.5318°
orbit number at epoch: 14974

The dashed part of the orbit path shows where the satellite is in the earth's shadow,  

DLR